[[{"header":{"parameterUnit":"m.s-1","parameterCategory":2,"la1":30.2991,"la2":30.254,"lo1":-89.0895,"lo2":-89.0444,"dy":0.0017,"dx":0.0017,"nx":28,"ny":28,"refTime":"2024-04-14T09:00:00:Z","depth":"0","parameterNumber":2,"parameterNumberName":"U-component_of_CURRENTS"},"data":[0,0,0,0,0,0,0,0,0,0,0,0,0,0,0,0,0,0,0,0,0,0,0,0,0,0,0,0,0,0,0,0,0,0,0,0,0,0,0,0,0,0,0,0,0,0,0,0,0,0,0,0,0,0,0,0,0,0,0.2863,0.2864,0,0.2953,0.2954,0.2954,0.2959,0.2958,0.2957,0.2957,0.2939,0.2939,0.2939,0,0,0,0,0,0,0,0,0,0,0,0,0,0.272,0.2722,0.2863,0.2864,0.2866,0.2953,0.2954,0.2954,0.2959,0.2958,0.2957,0.2956,0.2939,0.2939,0.2939,0,0,0,0,0,0,0,0,0,0,0,0,0,0.2789,0.2723,0.2862,0.2881,0.2884,0.2953,0.2954,0.2955,0.2959,0.2958,0.2957,0.2956,0.2939,0.2939,0.2939,0.2961,0,0,0.294,0.294,0,0,0,0,0,0,0,0,0.2785,0.2794,0.2877,0.288,0.2884,0.2947,0.2897,0.2953,0.2959,0.2926,0.2957,0.2955,0.2935,0.2936,0.295,0.296,0.2959,0.294,0.294,0.294,0.294,0,0,0,0,0,0,0,0.2781,0.279,0.2894,0.2879,0.2883,0.2895,0.2903,0.2908,0.293,0.2929,0.293,0.2948,0.2935,0.295,0.295,0.2959,0.294,0.294,0.294,0.294,0.3006,0.3008,0,0,0,0,0,0,0.2778,0.2786,0.2891,0.2897,0.2836,0.2898,0.2907,0.2924,0.2932,0.2935,0.2948,0.2948,0.295,0.2949,0.2949,0.2978,0.294,0.294,0.294,0.3005,0.3007,0.3008,0,0,0,0,0,0,0.2775,0.2787,0.2888,0.2847,0.2861,0.2902,0.2921,0.2927,0.2944,0.2949,0.2948,0.296,0.2949,0.2948,0.2965,0.2977,0.294,0.294,0.3003,0.3005,0.3007,0.3033,0,0,0,0,0,0,0.277,0.2785,0.2794,0.2847,0.2863,0.2932,0.2923,0.2929,0.2958,0.2957,0.2959,0.2956,0.2949,0.2964,0.2965,0.2976,0.2941,0.3001,0.3004,0.3007,0.303,0.3036,0.3041,0,0,0,0,0,0.2765,0.2787,0.2793,0.2806,0.2875,0.2933,0.2943,0.2965,0.2959,0.2974,0.2978,0.2956,0.2984,0.2966,0.2966,0.2978,0.2999,0.3003,0.3006,0.3028,0.3035,0.3041,0,0,0,0,0,0,0.2725,0.2791,0.2799,0.2838,0.2882,0.2935,0.2959,0.297,0.2988,0.2985,0.2976,0.2975,0.2993,0.299,0.2971,0.301,0.2989,0.2993,0.3005,0.3012,0.3017,0.3007,0.2941,0,0,0,0,0,0.2723,0.276,0.2816,0.2848,0.2872,0.2914,0.2939,0.2958,0.2985,0.2993,0.2993,0.2999,0.3011,0.3014,0.3023,0.3043,0.3084,0.3054,0.3059,0.3064,0.3058,0.3126,0.3137,0.302,0.302,0.302,0,0,0.2717,0.276,0.278,0.2843,0.288,0.2918,0.2926,0.2974,0.2993,0.2987,0.3006,0.3017,0.3023,0.3046,0.3054,0.3042,0.3134,0.3068,0.3072,0.3063,0.3131,0.3142,0.3152,0.3023,0.3022,0.3022,0,0,0.2732,0.2764,0.2799,0.2837,0.29,0.2929,0.2942,0.2995,0.3005,0.303,0.3035,0.3055,0.3066,0.308,0.3085,0.3129,0.316,0.3137,0.3151,0.3218,0.3228,0.3237,0.3364,0.3384,0.3138,0.3138,0.3138,0,0.2719,0.2767,0.2817,0.2857,0.2884,0.2931,0.2961,0.2989,0.3035,0.3045,0.3034,0.308,0.3078,0.3118,0.3131,0.3137,0.3206,0.3121,0.3225,0.3234,0.3242,0.337,0.3392,0.314,0.314,0.3139,0.3139,0,0.2762,0.2792,0.2819,0.288,0.2915,0.2955,0.2999,0.3025,0.3035,0.3059,0.3095,0.3111,0.3139,0.3146,0.3144,0.3212,0.3256,0.3224,0.3203,0.3255,0.3388,0.341,0.3142,0.3142,0.3141,0.3141,0,0,0.2745,0.2829,0.2832,0.2853,0.2925,0.2957,0.2994,0.304,0.3069,0.3095,0.3132,0.3151,0.3174,0.3184,0.3203,0.3249,0.3382,0.3263,0.3266,0.3384,0.3595,0.3579,0.3602,0.3373,0.3375,0.3377,0.3685,0,0.2755,0.2808,0.2853,0.2895,0.2923,0.297,0.3004,0.3049,0.3085,0.3136,0.316,0.321,0.3188,0.3222,0.3263,0.3355,0.3432,0.3305,0.353,0.3538,0.3511,0.3622,0.3443,0.3695,0.3706,0.371,0.3712,0,0.2774,0.2805,0.2838,0.2895,0.2913,0.2944,0.3004,0.3042,0.3123,0.3156,0.321,0.3256,0.3349,0.3308,0.3495,0.3425,0.3511,0.3571,0.3584,0.3564,0.3561,0.3634,0.3735,0.3565,0.3746,0.3744,0.3741,0,0.2727,0.2791,0.2808,0.2829,0.2904,0.2922,0.2963,0.304,0.3092,0.3189,0.3261,0.335,0.3444,0.3532,0.3662,0.3602,0.3875,0.381,0.3888,0.3892,0.3777,0.3764,0.3721,0.3937,0.3936,0.3935,0.3934,0,0.2715,0.2726,0.2786,0.2796,0.2831,0.289,0.2948,0.3001,0.3107,0.3197,0.3278,0.3393,0.3502,0.3665,0.3733,0.3912,0.3952,0.3927,0.3965,0.3789,0.3774,0.3647,0.3581,0.3947,0.3944,0.3942,0.394,0,0.2658,0.2697,0.2724,0.2787,0.2812,0.2833,0.2946,0.2997,0.3109,0.3238,0.3289,0.3486,0.3711,0.3839,0.404,0.4041,0.4061,0.4223,0.4041,0.4049,0.3897,0.3842,0.3809,0.3702,0.4362,0.4363,0.4364,0,0.263,0.2639,0.2702,0.273,0.276,0.2814,0.2865,0.2975,0.3045,0.3301,0.3366,0.3638,0.3799,0.4112,0.4187,0.4354,0.417,0.4257,0.4064,0.3893,0.3861,0.3708,0.3607,0.3972,0.397,0.3968,0.3967,0,0.2586,0.261,0.2641,0.2702,0.2749,0.279,0.287,0.293,0.3087,0.3222,0.3437,0.3595,0.392,0.4013,0.4224,0.4275,0.4002,0.4225,0.4072,0.3578,0.3385,0.3297,0.3819,0.3951,0.3952,0.3953,0.3954,0.3955,0.2566,0.2584,0.2648,0.268,0.273,0.2757,0.2756,0.287,0.2982,0.3154,0.3391,0.3572,0.3763,0.4034,0.4065,0.395,0.3968,0.3788,0.3764,0.3646,0.3416,0.3935,0.4069,0.4071,0.4073,0.4074,0.4076,0,0.2555,0.2589,0.2631,0.2671,0.2662,0.2701,0.2752,0.2734,0.2813,0.3039,0.3212,0.3414,0.3497,0.3602,0.3602,0.3474,0.3298,0.3356,0.3048,0.2993,0.3481,0.3326,0.3269,0.3269,0.3269,0.327,0.327,0.327,0.2571,0.2601,0.2604,0.2583,0.2585,0.2531,0.2513,0.2521,0.2619,0.275,0.2865,0.3041,0.3206,0.3232,0.3084,0.3015,0.2752,0.2665,0.267,0.2937,0.2971,0.3003,0.2836,0.2678,0.2677,0.2013,0.2008,0.2004]},{"header":{"parameterUnit":"m.s-1","parameterCategory":2,"la1":30.2991,"la2":30.254,"lo1":-89.0895,"lo2":-89.0444,"dy":0.0017,"dx":0.0017,"nx":28,"ny":28,"refTime":"2024-04-14T09:00:00:Z","depth":"0","parameterNumber":3,"parameterNumberName":"V-component_of_CURRENTS"},"data":[0,0,0,0,0,0,0,0,0,0,0,0,0,0,0,0,0,0,0,0,0,0,0,0,0,0,0,0,0,0,0,0,0,0,0,0,0,0,0,0,0,0,0,0,0,0,0,0,0,0,0,0,0,0,0,0,0,0,-0.0126,-0.0127,0,-0.0204,-0.0205,-0.0206,-0.024,-0.0239,-0.0239,-0.0239,-0.0328,-0.0331,-0.0334,0,0,0,0,0,0,0,0,0,0,0,0,0,-0.0094,-0.0095,-0.0126,-0.0127,-0.0127,-0.0204,-0.0205,-0.0207,-0.024,-0.0239,-0.0239,-0.0239,-0.0328,-0.0331,-0.0334,0,0,0,0,0,0,0,0,0,0,0,0,0,-0.0136,-0.0095,-0.0126,-0.0152,-0.0154,-0.0204,-0.0205,-0.0207,-0.024,-0.0239,-0.0239,-0.0238,-0.0327,-0.033,-0.0335,-0.037,0,0,-0.0347,-0.0349,0,0,0,0,0,0,0,0,-0.0133,-0.0137,-0.0147,-0.015,-0.0153,-0.021,-0.0227,-0.0261,-0.024,-0.021,-0.0239,-0.0238,-0.0289,-0.0296,-0.0315,-0.0374,-0.0378,-0.0347,-0.035,-0.0352,-0.0353,0,0,0,0,0,0,0,-0.013,-0.0135,-0.0159,-0.0148,-0.0152,-0.019,-0.0194,-0.0234,-0.0253,-0.0213,-0.0215,-0.022,-0.0291,-0.0311,-0.0317,-0.038,-0.0347,-0.0351,-0.0353,-0.0355,-0.0482,-0.0483,0,0,0,0,0,0,-0.0112,-0.0131,-0.0157,-0.0161,-0.0139,-0.019,-0.0195,-0.0194,-0.0253,-0.0261,-0.022,-0.0221,-0.0304,-0.0312,-0.032,-0.0339,-0.0351,-0.0355,-0.0358,-0.0481,-0.0483,-0.0484,0,0,0,0,0,0,-0.0111,-0.0113,-0.0154,-0.0147,-0.0154,-0.019,-0.0189,-0.0196,-0.0215,-0.0258,-0.0266,-0.0232,-0.0304,-0.0315,-0.0361,-0.0343,-0.0357,-0.0361,-0.048,-0.0482,-0.0483,-0.0393,0,0,0,0,0,0,-0.0109,-0.0112,-0.011,-0.0145,-0.0154,-0.0182,-0.0189,-0.0198,-0.0218,-0.022,-0.0271,-0.0279,-0.0305,-0.0354,-0.0365,-0.0349,-0.0364,-0.0479,-0.0481,-0.0483,-0.0395,-0.0391,-0.0388,0,0,0,0,0,-0.0108,-0.0107,-0.0109,-0.0112,-0.0147,-0.0182,-0.0191,-0.0217,-0.0219,-0.0232,-0.0267,-0.0277,-0.0373,-0.0359,-0.037,-0.0355,-0.0478,-0.048,-0.0483,-0.0396,-0.0392,-0.0388,0,0,0,0,0,0,-0.0088,-0.0111,-0.0114,-0.0118,-0.0145,-0.0187,-0.0201,-0.0216,-0.0255,-0.0255,-0.0293,-0.0304,-0.0338,-0.0372,-0.0356,-0.0403,-0.0426,-0.0431,-0.0356,-0.0353,-0.0349,-0.0311,-0.0367,0,0,0,0,0,-0.0082,-0.009,-0.0116,-0.012,-0.0131,-0.0165,-0.0183,-0.0199,-0.0234,-0.025,-0.0283,-0.0323,-0.0359,-0.0374,-0.0418,-0.0444,-0.0442,-0.0446,-0.0442,-0.0439,-0.042,-0.0419,-0.0411,-0.0491,-0.0491,-0.0491,0,0,-0.0074,-0.0089,-0.0092,-0.0117,-0.0141,-0.0145,-0.0176,-0.02,-0.0198,-0.0255,-0.027,-0.0317,-0.0368,-0.0395,-0.0412,-0.0416,-0.0413,-0.0442,-0.0437,-0.042,-0.042,-0.0411,-0.0404,-0.0492,-0.0492,-0.0492,0,0,-0.0064,-0.0076,-0.0078,-0.0095,-0.0123,-0.014,-0.0142,-0.018,-0.0193,-0.0221,-0.0257,-0.0292,-0.0351,-0.0373,-0.0394,-0.0404,-0.0402,-0.0424,-0.0363,-0.0362,-0.0353,-0.0347,-0.0308,-0.0298,-0.0413,-0.0413,-0.0413,0,-0.0052,-0.0047,-0.0086,-0.0089,-0.0086,-0.0129,-0.0117,-0.0142,-0.0187,-0.019,-0.0215,-0.0287,-0.0333,-0.0346,-0.0349,-0.0389,-0.0378,-0.0364,-0.0351,-0.0344,-0.0339,-0.0301,-0.0292,-0.0409,-0.0409,-0.041,-0.041,0,-0.0041,-0.0031,-0.0035,-0.0039,-0.0051,-0.0051,-0.0076,-0.0089,-0.0106,-0.0125,-0.0153,-0.022,-0.025,-0.0279,-0.0314,-0.0302,-0.0301,-0.0347,-0.0345,-0.0324,-0.0288,-0.0279,-0.0403,-0.0404,-0.0406,-0.0407,0,0,-0.0011,-0.002,-0.0017,0.0004,-0.0015,-0.0017,-0.0015,-0.0018,0.0004,-0.0054,-0.0027,-0.0108,-0.0137,-0.0164,-0.0215,-0.022,-0.0171,-0.0256,-0.0258,-0.0187,-0.0131,-0.0122,-0.0112,-0.0209,-0.0207,-0.0206,-0.011,0,0.0022,0.0049,0.0031,0.0071,0.0093,0.0067,0.0081,0.0069,0.0054,0.0063,-0.0001,-0.0006,-0.0094,-0.0093,-0.0117,-0.0158,-0.0149,-0.0191,-0.0188,-0.0187,-0.0158,-0.0103,-0.0111,-0.0026,-0.0102,-0.01,-0.0099,0,0.0056,0.0073,0.0124,0.0157,0.0164,0.0182,0.0217,0.0222,0.0211,0.0202,0.0177,0.0131,0.0116,0.0035,-0.0,-0.0019,-0.0061,-0.0099,-0.0097,-0.0112,-0.0164,-0.007,-0.0008,-0.0208,-0.0087,-0.0088,-0.0089,0,0.0125,0.0147,0.0201,0.0211,0.0231,0.0257,0.0271,0.0271,0.0311,0.0307,0.0353,0.0283,0.0309,0.0216,0.0135,0.0078,0.0113,0.0021,-0.0008,-0.0007,-0.0024,-0.0027,-0.013,0.0006,0.0006,0.0005,0.0005,0,0.019,0.0235,0.0242,0.0278,0.0348,0.0332,0.0414,0.0409,0.045,0.0545,0.0444,0.0529,0.0359,0.0349,0.0217,0.0165,0.0183,0.0035,0.0022,0.0006,0.0006,-0.0181,-0.0289,0.0009,0.0008,0.0007,0.0007,0,0.0273,0.0277,0.0341,0.0372,0.0389,0.0443,0.0524,0.059,0.0611,0.0742,0.0764,0.0757,0.0756,0.0591,0.0488,0.0326,0.0141,0.0202,0.0216,0.0202,-0.0058,-0.016,-0.0216,-0.0282,0.0177,0.0178,0.0178,0,0.0323,0.0362,0.0417,0.0469,0.0494,0.057,0.0641,0.0671,0.077,0.0912,0.1008,0.1041,0.1111,0.0953,0.0669,0.0463,0.0251,0.0288,0.0147,-0.0041,-0.0164,-0.0237,-0.0295,0.0173,0.0173,0.0174,0.0174,0,0.0417,0.0432,0.0484,0.0591,0.0673,0.0775,0.0887,0.0988,0.1079,0.1214,0.1421,0.1493,0.1349,0.1156,0.0832,0.0635,0.0147,0.0291,0.0081,-0.0173,-0.0243,-0.0322,0.0098,0.0178,0.0178,0.0178,0.0177,0.0177,0.0492,0.0546,0.062,0.0725,0.083,0.0993,0.11,0.1256,0.1455,0.1689,0.1741,0.19,0.1526,0.1094,0.0816,0.0215,0.0225,-0.0002,-0.0098,-0.0146,-0.0251,0.0202,0.0262,0.0262,0.0262,0.0262,0.0262,0,0.0592,0.0655,0.0755,0.0895,0.1038,0.107,0.1279,0.141,0.1675,0.1916,0.2106,0.202,0.1571,0.1044,0.0258,-0.0123,-0.029,-0.0354,-0.0499,-0.0534,-0.0142,-0.0191,-0.021,-0.021,-0.021,-0.021,-0.0209,-0.0209,0.0657,0.0769,0.0817,0.1059,0.1165,0.1366,0.1491,0.1698,0.1892,0.2177,0.2295,0.2361,0.1877,0.0537,-0.039,-0.0594,-0.0845,-0.0874,-0.0994,-0.0802,-0.0779,-0.0757,-0.0832,-0.0985,-0.0986,-0.1357,-0.1361,-0.1364]}],[{"header":{"parameterUnit":"m.s-1","parameterCategory":2,"la1":30.2991,"la2":30.254,"lo1":-89.0895,"lo2":-89.0444,"dy":0.0017,"dx":0.0017,"nx":28,"ny":28,"refTime":"2024-04-14T09:00:00:Z","depth":"2","parameterNumber":2,"parameterNumberName":"U-component_of_CURRENTS"},"data":[0,0,0,0,0,0,0,0,0,0,0,0,0,0,0,0,0,0,0,0,0,0,0,0,0,0,0,0,0,0,0,0,0,0,0,0,0,0,0,0,0,0,0,0,0,0,0,0,0,0,0,0,0,0,0,0,0,0,0.2353,0.2354,0,0.2409,0.241,0.2411,0.2449,0.2449,0.2449,0.2449,0.247,0.2471,0.2471,0,0,0,0,0,0,0,0,0,0,0,0,0,0.2288,0.2289,0.2353,0.2354,0.2354,0.2409,0.241,0.2411,0.2449,0.2449,0.2449,0.2449,0.247,0.2471,0.2471,0,0,0,0,0,0,0,0,0,0,0,0,0,0.2329,0.229,0.2353,0.2378,0.2381,0.2409,0.241,0.2411,0.2449,0.2449,0.2449,0.2449,0.247,0.247,0.2471,0.2473,0,0,0.2473,0.2474,0,0,0,0,0,0,0,0,0.2327,0.2332,0.2374,0.2376,0.2379,0.242,0.2395,0.243,0.2449,0.2425,0.2449,0.2449,0.2449,0.2451,0.2465,0.2474,0.2475,0.2473,0.2474,0.2474,0.2474,0,0,0,0,0,0,0,0.2324,0.233,0.2378,0.2374,0.2378,0.239,0.2396,0.2402,0.2437,0.2427,0.243,0.2433,0.245,0.2464,0.2466,0.2476,0.2473,0.2474,0.2475,0.2475,0.2703,0.2708,0,0,0,0,0,0,0.2312,0.2327,0.2376,0.2379,0.2351,0.239,0.2397,0.2409,0.2437,0.2442,0.2432,0.2434,0.2463,0.2465,0.2466,0.2596,0.2474,0.2475,0.2475,0.2697,0.2704,0.271,0,0,0,0,0,0,0.2311,0.2317,0.2373,0.2352,0.236,0.2391,0.2404,0.241,0.2487,0.2441,0.2445,0.251,0.2463,0.2465,0.252,0.2592,0.2475,0.2476,0.2691,0.2699,0.2707,0.2774,0,0,0,0,0,0,0.2309,0.2316,0.2339,0.2352,0.2361,0.2459,0.2404,0.2411,0.2483,0.2488,0.2507,0.2506,0.2463,0.252,0.2521,0.2591,0.2476,0.2683,0.2694,0.2704,0.2765,0.2784,0.28,0,0,0,0,0,0.2307,0.2335,0.2339,0.2346,0.2385,0.2462,0.2472,0.2493,0.2487,0.2557,0.2545,0.2509,0.259,0.2523,0.2524,0.2596,0.2678,0.2691,0.2704,0.2757,0.278,0.28,0,0,0,0,0,0,0.2323,0.2342,0.2347,0.2381,0.2449,0.247,0.252,0.2539,0.2588,0.2592,0.2548,0.2547,0.264,0.2625,0.2553,0.2708,0.2643,0.2656,0.2684,0.2705,0.2723,0.2668,0.2477,0,0,0,0,0,0.2333,0.236,0.2401,0.2439,0.2478,0.2515,0.2552,0.2581,0.2609,0.2635,0.2642,0.2659,0.2686,0.2698,0.2732,0.2787,0.2781,0.2854,0.2871,0.2886,0.2852,0.2913,0.293,0.2751,0.2751,0.2751,0,0,0.2332,0.2361,0.2366,0.2445,0.249,0.2564,0.2543,0.2633,0.2682,0.2625,0.2708,0.273,0.2725,0.2794,0.2836,0.2786,0.2952,0.2902,0.2912,0.287,0.2928,0.2944,0.2958,0.276,0.2759,0.2757,0,0,0.2392,0.2399,0.2468,0.2526,0.2622,0.2639,0.2687,0.276,0.2792,0.2858,0.2845,0.2895,0.2941,0.294,0.2939,0.3081,0.3058,0.3142,0.3152,0.3214,0.3226,0.3237,0.33,0.3316,0.3129,0.3129,0.313,0,0.2396,0.2472,0.2508,0.2607,0.2628,0.2686,0.2762,0.2813,0.2893,0.29,0.2905,0.2983,0.2992,0.3033,0.308,0.3111,0.3147,0.3052,0.3227,0.3238,0.3247,0.3309,0.3325,0.3134,0.3134,0.3133,0.3133,0,0.2524,0.2577,0.263,0.2738,0.2791,0.2863,0.2918,0.2986,0.3008,0.3029,0.3109,0.312,0.3145,0.3197,0.3157,0.3256,0.3264,0.3251,0.3146,0.3267,0.3328,0.3344,0.3141,0.3139,0.3138,0.3137,0,0,0.2509,0.2675,0.2692,0.2732,0.2844,0.2889,0.2972,0.3033,0.3067,0.3147,0.3181,0.3235,0.3244,0.3248,0.326,0.3296,0.3412,0.3296,0.3297,0.331,0.3565,0.3446,0.3451,0.3431,0.3434,0.3435,0.3595,0,0.2586,0.2747,0.2805,0.2904,0.2963,0.2993,0.3046,0.3106,0.3148,0.3212,0.3229,0.3292,0.3268,0.3294,0.3331,0.3399,0.3449,0.3369,0.3486,0.3489,0.3326,0.3462,0.3151,0.3255,0.3609,0.3612,0.3614,0,0.2697,0.2758,0.2873,0.293,0.2959,0.3014,0.3049,0.3115,0.32,0.3235,0.3287,0.3329,0.3398,0.3373,0.3498,0.3456,0.3508,0.3549,0.3556,0.3409,0.3395,0.319,0.3269,0.3638,0.3636,0.3634,0.3633,0,0.2657,0.2795,0.2858,0.2884,0.2976,0.2992,0.3033,0.3111,0.3165,0.3264,0.3332,0.3399,0.3481,0.3532,0.3595,0.3574,0.3733,0.372,0.3663,0.3657,0.3388,0.3353,0.3809,0.3808,0.3808,0.3808,0.3807,0,0.2694,0.2736,0.2838,0.2854,0.289,0.296,0.3014,0.307,0.3177,0.3264,0.3345,0.3444,0.3531,0.3624,0.3644,0.3692,0.3779,0.3672,0.3687,0.3414,0.338,0.3689,0.3673,0.3814,0.3812,0.3811,0.381,0,0.2669,0.2753,0.2797,0.286,0.2883,0.2903,0.301,0.3063,0.3173,0.33,0.3345,0.3526,0.3651,0.3704,0.3825,0.3774,0.381,0.3803,0.3471,0.3441,0.369,0.3677,0.3776,0.3773,0.3771,0.3769,0.3767,0,0.2691,0.2712,0.2773,0.28,0.2831,0.2882,0.2931,0.3041,0.3114,0.3347,0.3412,0.3596,0.3671,0.3784,0.3718,0.3711,0.3818,0.3443,0.3318,0.368,0.3686,0.3677,0.3668,0.3033,0.3026,0.302,0.3015,0,0.2666,0.2684,0.2717,0.2773,0.2821,0.2864,0.2943,0.3003,0.3155,0.3249,0.3416,0.3494,0.3606,0.3454,0.3434,0.339,0.34,0.3316,0.3803,0.3068,0.2986,0.299,0.3004,0.2959,0.2965,0.2969,0.2972,0.2974,0.2645,0.2657,0.2717,0.2755,0.2808,0.2846,0.2862,0.2927,0.3002,0.3052,0.3211,0.3167,0.3222,0.3006,0.2937,0.289,0.3123,0.2983,0.3,0.3024,0.2888,0.2803,0.2719,0.2722,0.2726,0.2729,0.2732,0,0.2633,0.2666,0.2705,0.2756,0.2771,0.2813,0.2874,0.28,0.2803,0.2798,0.2774,0.2489,0.2388,0.2487,0.2313,0.2316,0.2274,0.2253,0.2174,0.223,0.2281,0.2104,0.1728,0.1725,0.1723,0.172,0,0,0.2642,0.2672,0.268,0.2704,0.2729,0.2695,0.2697,0.2554,0.2477,0.2248,0.2134,0.2133,0.2332,0.1942,0.193,0.1812,0.1998,0.1739,0.254,0.2498,0.2544,0.2697,0.2489,0,0,0,0,0]},{"header":{"parameterUnit":"m.s-1","parameterCategory":2,"la1":30.2991,"la2":30.254,"lo1":-89.0895,"lo2":-89.0444,"dy":0.0017,"dx":0.0017,"nx":28,"ny":28,"refTime":"2024-04-14T09:00:00:Z","depth":"2","parameterNumber":3,"parameterNumberName":"V-component_of_CURRENTS"},"data":[0,0,0,0,0,0,0,0,0,0,0,0,0,0,0,0,0,0,0,0,0,0,0,0,0,0,0,0,0,0,0,0,0,0,0,0,0,0,0,0,0,0,0,0,0,0,0,0,0,0,0,0,0,0,0,0,0,0,-0.0163,-0.0164,0,-0.0232,-0.0233,-0.0234,-0.0287,-0.0287,-0.0287,-0.0287,-0.0353,-0.0355,-0.0357,0,0,0,0,0,0,0,0,0,0,0,0,0,-0.0151,-0.0151,-0.0163,-0.0164,-0.0164,-0.0232,-0.0233,-0.0235,-0.0287,-0.0287,-0.0287,-0.0287,-0.0353,-0.0355,-0.0357,0,0,0,0,0,0,0,0,0,0,0,0,0,-0.0186,-0.0151,-0.0163,-0.0195,-0.0198,-0.0232,-0.0233,-0.0235,-0.0287,-0.0287,-0.0287,-0.0287,-0.0352,-0.0355,-0.0357,-0.037,0,0,-0.0365,-0.0366,0,0,0,0,0,0,0,0,-0.0183,-0.0187,-0.019,-0.0193,-0.0197,-0.0247,-0.0253,-0.0279,-0.0287,-0.0258,-0.0287,-0.0287,-0.0315,-0.032,-0.0339,-0.0374,-0.0376,-0.0365,-0.0367,-0.0368,-0.0368,0,0,0,0,0,0,0,-0.0181,-0.0184,-0.0195,-0.019,-0.0194,-0.0231,-0.0236,-0.0259,-0.0288,-0.026,-0.0263,-0.0264,-0.0317,-0.0337,-0.0341,-0.0377,-0.0365,-0.0367,-0.0369,-0.037,-0.0525,-0.0527,0,0,0,0,0,0,-0.0159,-0.0181,-0.0193,-0.0197,-0.0185,-0.023,-0.0236,-0.0234,-0.0288,-0.0295,-0.0264,-0.0266,-0.0332,-0.0338,-0.0344,-0.037,-0.0368,-0.037,-0.0372,-0.0522,-0.0525,-0.0528,0,0,0,0,0,0,-0.0159,-0.016,-0.019,-0.0187,-0.0193,-0.0229,-0.0228,-0.0236,-0.0284,-0.029,-0.0298,-0.0306,-0.0333,-0.034,-0.0384,-0.0373,-0.0371,-0.0374,-0.0519,-0.0523,-0.0527,-0.0419,0,0,0,0,0,0,-0.0158,-0.0159,-0.0162,-0.0186,-0.0192,-0.0233,-0.0227,-0.0237,-0.028,-0.0285,-0.0328,-0.0333,-0.0333,-0.0381,-0.0387,-0.0376,-0.0376,-0.0516,-0.0521,-0.0525,-0.0419,-0.0418,-0.0418,0,0,0,0,0,-0.0158,-0.0154,-0.0162,-0.0164,-0.0191,-0.0234,-0.0244,-0.0272,-0.0282,-0.0315,-0.0336,-0.0333,-0.0417,-0.0384,-0.0391,-0.0381,-0.0513,-0.0519,-0.0525,-0.0419,-0.0418,-0.0418,0,0,0,0,0,0,-0.0151,-0.0159,-0.0169,-0.0168,-0.021,-0.0242,-0.0264,-0.0291,-0.0336,-0.0338,-0.0352,-0.0359,-0.0399,-0.0429,-0.0393,-0.0454,-0.0471,-0.0479,-0.0389,-0.0388,-0.0388,-0.0339,-0.0378,0,0,0,0,0,-0.0149,-0.0151,-0.0178,-0.0185,-0.0202,-0.0243,-0.0267,-0.0291,-0.0323,-0.0346,-0.0372,-0.0407,-0.0427,-0.0438,-0.0476,-0.0497,-0.0498,-0.051,-0.0509,-0.0507,-0.0482,-0.0481,-0.0475,-0.0547,-0.0547,-0.0547,0,0,-0.0141,-0.0152,-0.015,-0.0185,-0.0214,-0.0225,-0.0261,-0.0302,-0.0302,-0.0343,-0.0367,-0.0411,-0.0442,-0.0461,-0.0483,-0.0478,-0.0494,-0.0515,-0.0511,-0.0486,-0.0486,-0.0478,-0.0471,-0.0551,-0.055,-0.055,0,0,-0.0136,-0.0148,-0.0152,-0.0178,-0.0223,-0.0239,-0.0258,-0.0309,-0.0328,-0.0354,-0.0383,-0.042,-0.0463,-0.047,-0.0475,-0.0507,-0.0501,-0.0545,-0.0473,-0.0473,-0.0464,-0.0457,-0.0446,-0.0438,-0.0528,-0.0528,-0.0528,0,-0.013,-0.0124,-0.0167,-0.0179,-0.0175,-0.0241,-0.0237,-0.0267,-0.0326,-0.0324,-0.0353,-0.0413,-0.045,-0.0438,-0.0447,-0.0493,-0.0493,-0.0451,-0.0461,-0.0454,-0.0448,-0.0439,-0.0432,-0.0524,-0.0524,-0.0525,-0.0525,0,-0.0127,-0.0118,-0.0126,-0.014,-0.0159,-0.0169,-0.0196,-0.0227,-0.0249,-0.0265,-0.0292,-0.0346,-0.0366,-0.0402,-0.0417,-0.0408,-0.0423,-0.0461,-0.0434,-0.0432,-0.0426,-0.042,-0.0517,-0.0519,-0.052,-0.0521,0,0,-0.0093,-0.0113,-0.0109,-0.0092,-0.0125,-0.0132,-0.013,-0.0133,-0.011,-0.0179,-0.0142,-0.0206,-0.0246,-0.0261,-0.0312,-0.0315,-0.028,-0.0357,-0.0359,-0.0295,-0.0263,-0.0326,-0.0326,-0.0307,-0.0306,-0.0305,-0.0272,0,-0.0066,-0.0051,-0.0068,-0.0031,-0.0013,-0.0042,-0.0022,-0.0038,-0.0051,-0.0044,-0.0097,-0.0098,-0.0187,-0.0186,-0.0207,-0.0264,-0.0261,-0.0284,-0.032,-0.0321,-0.0334,-0.032,-0.0291,-0.0264,-0.0266,-0.0265,-0.0264,0,-0.0036,-0.0021,0.0023,0.0063,0.0068,0.0084,0.0128,0.0132,0.0126,0.0118,0.0098,0.0048,0.003,-0.0049,-0.0108,-0.0117,-0.0175,-0.0224,-0.0225,-0.0309,-0.0373,-0.0276,-0.0253,-0.0254,-0.0255,-0.0256,-0.0257,0,0.0039,0.0058,0.011,0.012,0.0139,0.017,0.0184,0.0188,0.0224,0.0227,0.0264,0.02,0.0207,0.0112,-0.0017,-0.0044,-0.0081,-0.0132,-0.024,-0.0245,-0.024,-0.0248,-0.0157,-0.0157,-0.0157,-0.0157,-0.0157,0,0.0105,0.0153,0.0152,0.019,0.0264,0.0249,0.0332,0.0331,0.0367,0.044,0.0357,0.0406,0.0252,0.0195,0.0054,-0.0074,-0.0026,-0.0209,-0.0236,-0.021,-0.0215,-0.0233,-0.0242,-0.0156,-0.0156,-0.0156,-0.0157,0,0.019,0.0189,0.0254,0.0288,0.0306,0.0361,0.0431,0.0492,0.0511,0.0612,0.0629,0.0595,0.0525,0.0345,0.0209,0.0044,-0.0094,-0.0154,-0.0115,-0.014,-0.0268,-0.0273,-0.0243,-0.0244,-0.0246,-0.0247,-0.0248,0,0.0234,0.0274,0.0329,0.0374,0.0399,0.0473,0.0535,0.0566,0.0636,0.0732,0.0795,0.0769,0.0743,0.0494,0.0222,-0.0025,-0.0073,-0.0178,-0.0242,-0.0244,-0.0274,-0.0277,-0.028,-0.0185,-0.0186,-0.0186,-0.0187,0,0.0322,0.0337,0.0385,0.0474,0.0547,0.0629,0.0717,0.0789,0.0854,0.0935,0.1024,0.1016,0.0814,0.0567,0.0213,0.0035,-0.0148,-0.0196,-0.0174,-0.0193,-0.0195,-0.0224,-0.0227,-0.019,-0.019,-0.019,-0.0189,-0.0189,0.0381,0.0421,0.0475,0.0546,0.0649,0.0753,0.0802,0.0932,0.1044,0.116,0.1151,0.1139,0.0898,0.0441,0.0156,-0.0152,-0.0149,-0.0277,-0.0273,-0.0269,-0.0294,-0.0301,-0.0319,-0.0319,-0.0319,-0.0319,-0.032,0,0.0399,0.0445,0.0536,0.061,0.07,0.077,0.0892,0.0961,0.109,0.1246,0.1287,0.1031,0.0767,0.0491,0.0043,-0.0243,-0.0251,-0.0335,-0.0273,-0.0268,-0.0264,-0.0287,-0.031,-0.0311,-0.0311,-0.0312,0,0,0.0416,0.045,0.0468,0.0586,0.0683,0.079,0.0847,0.1014,0.1128,0.1267,0.1279,0.1219,0.0878,0.0549,0.0192,-0.0048,-0.0098,-0.0105,-0.0086,0.0036,0.0043,-0.0207,-0.0235,0,0,0,0,0]}],[{"header":{"parameterUnit":"m.s-1","parameterCategory":2,"la1":30.2991,"la2":30.254,"lo1":-89.0895,"lo2":-89.0444,"dy":0.0017,"dx":0.0017,"nx":28,"ny":28,"refTime":"2024-04-14T09:00:00:Z","depth":"4","parameterNumber":2,"parameterNumberName":"U-component_of_CURRENTS"},"data":[0,0,0,0,0,0,0,0,0,0,0,0,0,0,0,0,0,0,0,0,0,0,0,0,0,0,0,0,0,0,0,0,0,0,0,0,0,0,0,0,0,0,0,0,0,0,0,0,0,0,0,0,0,0,0,0,0,0,0.1026,0.1026,0,0.1042,0.1042,0.1043,0.109,0.1091,0.1092,0.1093,0.1198,0.12,0.1202,0,0,0,0,0,0,0,0,0,0,0,0,0,0.1018,0.1018,0.1026,0.1026,0.1027,0.1042,0.1042,0.1043,0.109,0.1091,0.1092,0.1093,0.1197,0.1199,0.1202,0,0,0,0,0,0,0,0,0,0,0,0,0,0.1027,0.1018,0.1026,0.1052,0.1054,0.1042,0.1042,0.1043,0.109,0.1091,0.1093,0.1094,0.1197,0.1199,0.1202,0.119,0,0,0.1211,0.1212,0,0,0,0,0,0,0,0,0.1027,0.1028,0.1048,0.105,0.1052,0.1065,0.1078,0.1096,0.1089,0.1077,0.1093,0.1095,0.116,0.1166,0.1165,0.1194,0.1199,0.1211,0.1213,0.1214,0.1215,0,0,0,0,0,0,0,0.1026,0.1027,0.1033,0.1048,0.1051,0.1056,0.1059,0.1081,0.1112,0.1078,0.1081,0.1082,0.1162,0.1162,0.1168,0.1201,0.1211,0.1213,0.1215,0.1216,0.1329,0.1331,0,0,0,0,0,0,0.1022,0.1026,0.1033,0.1034,0.1042,0.1055,0.1058,0.106,0.111,0.1118,0.108,0.1084,0.1157,0.1165,0.1172,0.1267,0.1214,0.1216,0.1218,0.1328,0.133,0.1331,0,0,0,0,0,0,0.1022,0.1023,0.1032,0.103,0.1031,0.1053,0.1055,0.106,0.1085,0.1111,0.1121,0.1103,0.1158,0.1169,0.123,0.1268,0.1218,0.122,0.1327,0.1329,0.133,0.1389,0,0,0,0,0,0,0.1022,0.1022,0.1034,0.103,0.1031,0.1029,0.1054,0.1059,0.1081,0.1086,0.1133,0.1143,0.116,0.1226,0.1233,0.1271,0.1222,0.1325,0.1327,0.133,0.1386,0.1393,0.1399,0,0,0,0,0,0.1021,0.1013,0.1034,0.1035,0.1042,0.1028,0.1029,0.105,0.108,0.1081,0.1139,0.1143,0.1247,0.123,0.1237,0.1277,0.1324,0.1327,0.133,0.1383,0.1392,0.1399,0,0,0,0,0,0,0.1011,0.1017,0.104,0.1036,0.1039,0.1036,0.104,0.106,0.1102,0.1121,0.1162,0.1175,0.1228,0.1247,0.1227,0.1315,0.1284,0.1289,0.1322,0.1331,0.1337,0.1364,0.1225,0,0,0,0,0,0.1015,0.1015,0.1023,0.102,0.1025,0.1042,0.1046,0.1056,0.1085,0.1105,0.1153,0.1203,0.1239,0.1283,0.1298,0.1362,0.1387,0.1391,0.1398,0.1404,0.1431,0.1523,0.1542,0.1341,0.1341,0.1341,0,0,0.101,0.1014,0.1016,0.102,0.1028,0.1042,0.1048,0.1048,0.1085,0.111,0.1192,0.1212,0.1253,0.1313,0.1342,0.1347,0.1464,0.1408,0.1413,0.1437,0.1529,0.1549,0.1566,0.1343,0.1343,0.1342,0,0,0.0973,0.1006,0.0988,0.1005,0.1015,0.1036,0.1044,0.1065,0.1104,0.1159,0.1195,0.1249,0.1312,0.1361,0.139,0.1445,0.1474,0.1456,0.1548,0.1637,0.1655,0.1671,0.1688,0.1705,0.149,0.149,0.149,0,0.0976,0.0974,0.098,0.0979,0.1017,0.1044,0.1061,0.1094,0.1142,0.1198,0.1191,0.1314,0.1332,0.1441,0.1471,0.1462,0.151,0.1514,0.1649,0.1666,0.1682,0.1695,0.1714,0.1493,0.1493,0.1493,0.1492,0,0.0929,0.0955,0.0949,0.0984,0.1009,0.1032,0.1083,0.1144,0.1202,0.124,0.1341,0.1375,0.1468,0.1473,0.1499,0.1632,0.1624,0.1622,0.1632,0.1706,0.1713,0.1732,0.1498,0.1497,0.1496,0.1495,0,0,0.0884,0.0919,0.0922,0.0965,0.1036,0.1046,0.1142,0.1234,0.1316,0.1367,0.1483,0.1541,0.1579,0.1617,0.1654,0.1744,0.1866,0.1764,0.1767,0.1786,0.2048,0.1882,0.1885,0.1923,0.1927,0.1931,0.1993,0,0.0871,0.0888,0.0913,0.0975,0.1016,0.111,0.1184,0.1269,0.137,0.1484,0.1552,0.1647,0.1631,0.1702,0.1787,0.1852,0.1927,0.1847,0.1969,0.1971,0.1822,0.1906,0.1945,0.2007,0.2011,0.2014,0.2016,0,0.0822,0.0866,0.0921,0.1016,0.1038,0.1081,0.1264,0.1335,0.1499,0.1592,0.1725,0.177,0.1917,0.1882,0.2043,0.2013,0.2049,0.2075,0.2078,0.1926,0.1842,0.1928,0.205,0.2047,0.2045,0.2042,0.204,0,0.0787,0.0865,0.0931,0.0973,0.108,0.1145,0.1216,0.1369,0.147,0.1699,0.1792,0.194,0.2015,0.2126,0.2169,0.2153,0.2314,0.2279,0.2145,0.213,0.2233,0.2216,0.2395,0.2395,0.2395,0.2395,0.2394,0,0.0764,0.0806,0.093,0.0959,0.1063,0.1133,0.1261,0.1382,0.1559,0.1669,0.1847,0.1941,0.2094,0.2179,0.2233,0.2237,0.2363,0.2178,0.2159,0.2246,0.223,0.2243,0.2225,0.2397,0.2396,0.2396,0.2395,0,0.0682,0.0761,0.0857,0.0996,0.1038,0.1121,0.1275,0.1326,0.1554,0.1724,0.1808,0.1981,0.2096,0.2193,0.2331,0.2266,0.2322,0.2287,0.235,0.2329,0.2055,0.2039,0.2148,0.2143,0.2139,0.2136,0.2133,0,0.0624,0.0668,0.0865,0.0923,0.0985,0.1117,0.1134,0.1328,0.1421,0.1712,0.1753,0.1925,0.2026,0.2069,0.2191,0.2275,0.2247,0.2236,0.217,0.2071,0.2043,0.2033,0.2023,0.2127,0.2126,0.2125,0.2124,0,0.0555,0.0653,0.0735,0.0833,0.0886,0.1004,0.109,0.1163,0.1377,0.1566,0.1693,0.1781,0.1871,0.1957,0.2032,0.2088,0.2237,0.2193,0.22,0.2138,0.2046,0.202,0.2014,0.2109,0.2111,0.2113,0.2114,0,0.0512,0.056,0.0651,0.0747,0.0811,0.0879,0.0956,0.1033,0.1158,0.1474,0.1483,0.1683,0.1821,0.1859,0.1942,0.1982,0.1947,0.1874,0.1898,0.1915,0.1816,0.1663,0.1616,0,0,0,0,0,0.0476,0.0488,0.0532,0.0636,0.0682,0.0755,0.0891,0.0975,0.1176,0.1202,0.1378,0.1475,0.1595,0.1679,0.1679,0.1841,0.1954,0.183,0.1879,0.2031,0.2048,0.1955,0,0,0,0,0,0,0.0443,0.0474,0.0498,0.052,0.0561,0.0604,0.0713,0.0843,0.0919,0.1133,0.1198,0.136,0.1491,0.1584,0.1642,0.1675,0.1668,0.1955,0.195,0.2022,0.2037,0.205,0.1961,0,0,0,0,0]},{"header":{"parameterUnit":"m.s-1","parameterCategory":2,"la1":30.2991,"la2":30.254,"lo1":-89.0895,"lo2":-89.0444,"dy":0.0017,"dx":0.0017,"nx":28,"ny":28,"refTime":"2024-04-14T09:00:00:Z","depth":"4","parameterNumber":3,"parameterNumberName":"V-component_of_CURRENTS"},"data":[0,0,0,0,0,0,0,0,0,0,0,0,0,0,0,0,0,0,0,0,0,0,0,0,0,0,0,0,0,0,0,0,0,0,0,0,0,0,0,0,0,0,0,0,0,0,0,0,0,0,0,0,0,0,0,0,0,0,0.0118,0.0119,0,0.0133,0.0133,0.0133,0.01,0.0099,0.0099,0.0098,0.0048,0.0047,0.0047,0,0,0,0,0,0,0,0,0,0,0,0,0,0.0059,0.006,0.0118,0.0119,0.0119,0.0133,0.0133,0.0133,0.01,0.0099,0.0098,0.0097,0.0048,0.0048,0.0047,0,0,0,0,0,0,0,0,0,0,0,0,0,0.0078,0.006,0.0118,0.0106,0.0106,0.0133,0.0133,0.0133,0.0101,0.0099,0.0098,0.0097,0.0048,0.0048,0.0047,0.0066,0,0,0.0044,0.0044,0,0,0,0,0,0,0,0,0.0077,0.008,0.0108,0.0107,0.0106,0.0116,0.0094,0.0108,0.0101,0.01,0.0098,0.0096,0.0067,0.0065,0.0068,0.0064,0.0062,0.0044,0.0044,0.0043,0.0043,0,0,0,0,0,0,0,0.0075,0.0079,0.0121,0.0108,0.0108,0.01,0.0101,0.0097,0.0087,0.01,0.0098,0.0104,0.0066,0.0069,0.0066,0.0061,0.0044,0.0043,0.0043,0.0043,0.0081,0.0082,0,0,0,0,0,0,0.0081,0.0078,0.0121,0.0122,0.0091,0.0102,0.0103,0.0112,0.0088,0.0085,0.0105,0.0103,0.0071,0.0067,0.0064,0.0093,0.0043,0.0043,0.0042,0.0079,0.0081,0.0083,0,0,0,0,0,0,0.0079,0.0084,0.0121,0.0102,0.0106,0.0104,0.0115,0.0113,0.0121,0.0094,0.0088,0.0116,0.007,0.0065,0.0068,0.009,0.0042,0.0041,0.0077,0.008,0.0082,0.0146,0,0,0,0,0,0,0.0078,0.0084,0.0091,0.0103,0.0108,0.0157,0.0116,0.0114,0.0128,0.0124,0.0101,0.0095,0.0068,0.0069,0.0067,0.0088,0.0041,0.0076,0.0079,0.0081,0.0142,0.015,0.0157,0,0,0,0,0,0.0075,0.0105,0.0092,0.0097,0.0118,0.0159,0.0162,0.0153,0.013,0.0151,0.0124,0.0096,0.0086,0.007,0.0067,0.0088,0.0074,0.0078,0.0081,0.0138,0.0148,0.0157,0,0,0,0,0,0,0.0086,0.0105,0.009,0.0123,0.0144,0.0155,0.0177,0.0165,0.0162,0.0158,0.0114,0.0107,0.0119,0.0101,0.0084,0.011,0.0077,0.008,0.0121,0.013,0.0138,0.0132,0.004,0,0,0,0,0,0.0091,0.0115,0.013,0.0157,0.0173,0.0173,0.0186,0.0187,0.0188,0.0185,0.0165,0.0145,0.0132,0.0128,0.0121,0.0136,0.0084,0.0149,0.0157,0.0163,0.0158,0.0095,0.0095,0.0094,0.0094,0.0094,0,0,0.0102,0.0115,0.0128,0.016,0.0174,0.021,0.0179,0.022,0.0237,0.0181,0.0198,0.0175,0.0144,0.0157,0.0161,0.0142,0.014,0.0168,0.0173,0.0164,0.0098,0.0097,0.0097,0.0096,0.0096,0.0095,0,0,0.0155,0.0153,0.0197,0.0218,0.0253,0.0253,0.0268,0.0289,0.0287,0.0304,0.0262,0.0251,0.0242,0.0219,0.0204,0.0252,0.0184,0.0257,0.0287,0.0226,0.0225,0.0223,0.0164,0.0157,0.0259,0.0259,0.0259,0,0.0162,0.0215,0.0218,0.0266,0.0284,0.0275,0.0323,0.0327,0.0341,0.033,0.0321,0.0284,0.0269,0.0251,0.0271,0.0268,0.0217,0.0252,0.0233,0.023,0.0227,0.0167,0.0158,0.0263,0.0262,0.0262,0.0261,0,0.0254,0.0286,0.032,0.0363,0.0384,0.0431,0.0434,0.0447,0.0431,0.0415,0.0404,0.0375,0.0343,0.0347,0.0323,0.0302,0.0268,0.0248,0.0203,0.023,0.0166,0.0155,0.0268,0.0266,0.0265,0.0264,0,0,0.0289,0.0365,0.0375,0.0395,0.0436,0.046,0.049,0.0498,0.049,0.0488,0.0468,0.0455,0.0418,0.0399,0.0368,0.0324,0.0272,0.0282,0.0278,0.0213,0.0127,0.0126,0.0113,0.0237,0.0236,0.0234,0.0093,0,0.0353,0.0445,0.0467,0.0531,0.0571,0.0561,0.0578,0.0576,0.0556,0.0535,0.0488,0.0466,0.0443,0.0427,0.038,0.0297,0.0245,0.0312,0.012,0.0115,0.01,0.0101,0.023,0.0085,0.0082,0.008,0.0079,0,0.0438,0.0478,0.056,0.0589,0.0605,0.0635,0.0629,0.0651,0.0614,0.0594,0.0553,0.0502,0.0448,0.0425,0.0281,0.0319,0.0231,0.0164,0.0156,0.0121,0.0093,0.0051,0.0058,0.0059,0.0061,0.0062,0.0064,0,0.0454,0.0537,0.0591,0.0609,0.0648,0.0665,0.0684,0.0667,0.0672,0.0632,0.061,0.0525,0.048,0.0364,0.0239,0.0247,0.0065,0.0055,-0.0034,-0.0035,-0.0023,-0.002,-0.0059,-0.0058,-0.0058,-0.0058,-0.0057,0,0.0503,0.0543,0.0603,0.0626,0.0676,0.0694,0.0725,0.0727,0.0714,0.0708,0.0645,0.0602,0.0459,0.034,0.0228,0.0064,0.0049,-0.0037,-0.0074,0.0011,0.002,-0.0031,-0.0026,-0.0063,-0.0062,-0.0061,-0.006,0,0.0516,0.0559,0.0614,0.0663,0.0692,0.0725,0.0779,0.0778,0.0775,0.0766,0.0754,0.0641,0.0489,0.0338,0.0138,0.005,-0.0101,-0.0157,-0.0056,-0.0084,-0.0161,-0.015,-0.0277,-0.0279,-0.028,-0.0281,-0.0281,0,0.0528,0.0564,0.0644,0.0676,0.0706,0.0764,0.0794,0.0817,0.0819,0.0783,0.0765,0.0628,0.0536,0.0252,0.0099,-0.013,-0.0154,-0.0236,-0.0193,-0.0161,-0.0185,-0.0173,-0.0161,-0.0283,-0.0283,-0.0284,-0.0284,0,0.0536,0.0571,0.0611,0.0689,0.0734,0.0798,0.0849,0.0848,0.0856,0.0845,0.0758,0.0619,0.0441,0.0239,0.0061,-0.0097,-0.0181,-0.0248,-0.0247,-0.0207,-0.0169,-0.0189,-0.0177,-0.0288,-0.0287,-0.0287,-0.0287,0,0.0539,0.0565,0.0628,0.0694,0.0754,0.0813,0.0841,0.0838,0.0848,0.0805,0.0767,0.06,0.0498,0.0253,0.0091,-0.0064,-0.01,-0.0143,-0.0148,-0.0145,-0.0053,0.0018,-0.0084,0,0,0,0,0,0.0547,0.0582,0.0631,0.07,0.0753,0.081,0.0862,0.0872,0.0867,0.0809,0.0797,0.064,0.0393,0.0278,0.012,0.0067,-0.0129,-0.0123,-0.018,-0.0309,-0.0304,-0.0217,0,0,0,0,0,0,0.0548,0.0602,0.0629,0.0699,0.0742,0.0815,0.0852,0.0856,0.0823,0.0794,0.066,0.0605,0.0359,0.0487,0.0119,0.0071,0.0014,-0.0236,-0.0239,-0.0311,-0.0307,-0.0304,-0.0212,0,0,0,0,0]}]]